Weather History for Baker, MT

Change the Weather History Date:

Saturday, March 9, 2013

  Actual Average Record
Temperature  
Mean Temperature 28 °F -  
Max Temperature 35 °F 50 °F 68 °F (2012)
Min Temperature 19 °F 28 °F -26 °F (2002)
Degree Days  
Heating Degree Days 37    
Moisture  
Dew Point 23 °F    
Average Humidity 76    
Maximum Humidity 86    
Minimum Humidity 59    
Precipitation  
Precipitation 0.00 in - - ()
Sea Level Pressure  
Sea Level Pressure 30.02 in    
Wind  
Wind Speed 11 mph (NW)    
Max Wind Speed 23 mph    
Max Gust Speed 29 mph    
Visibility 9 miles    
Events Snow    
Averages and records for this station are not official NWS values.
T = Trace of Precipitation, MM = Missing Value Source: NWS Daily Summary

Daily Weather History Graph

Daily Weather History Graph

Search for Another Location

Airport:

Trip Planner

Search our weather history database for the weather conditions in past years. The results will help you decide how hot, cold, wet, or windy it might be!

Date:

Astronomy

Mar. 09, 2013 Rise Set
Actual Time 6:20 AM MST 5:54 PM MST
Civil Twilight 5:50 AM MST 6:24 PM MST
Nautical Twilight 5:15 AM MST 6:59 PM MST
Astronomical Twilight 4:40 AM MST 7:35 PM MST
Moon 4:52 AM MST (3/9) 3:55 PM MST (3/9)
Length of Visible Light 12h 34m
Length of Day
11h 34m
Waning Crescent, 5% of the Moon is Illuminated
Mar 9
Waning Crescent
Mar 11
New
Mar 19
First Quarter
Mar 27
Full
Apr 2
Last Quarter

Hourly Weather History & Observations

Time (MST) Temp. Windchill Dew Point Humidity Pressure Visibility Wind Dir Wind Speed Gust Speed Precip Events Conditions
12:51 AM 28.9 °F 19.8 °F 24.1 °F 82% 29.95 in 8.0 mi SE 10.4 mph - N/A   Overcast
1:51 AM 28.9 °F 23.9 °F 24.1 °F 82% 29.93 in 8.0 mi SE 4.6 mph - N/A   Overcast
2:21 AM 28.4 °F 24.6 °F 24.8 °F 86% 29.85 in 9.0 mi SW 3.5 mph - N/A   Overcast
2:51 AM 28.9 °F 25.2 °F 24.1 °F 82% 29.91 in 8.0 mi West 3.5 mph - N/A   Overcast
3:51 AM 28.9 °F 23.9 °F 24.1 °F 82% 29.92 in 8.0 mi NW 4.6 mph - N/A   Overcast
4:51 AM 28.9 °F 21.9 °F 25.0 °F 85% 29.93 in 8.0 mi WNW 6.9 mph - N/A   Overcast
5:46 AM 30.2 °F 21.9 °F 24.8 °F 80% 29.88 in 9.0 mi NW 9.2 mph - N/A   Overcast
5:51 AM 30.0 °F 21.1 °F 25.0 °F 82% 29.95 in 9.0 mi NW 10.4 mph - N/A   Overcast
5:54 AM 30.2 °F 20.8 °F 24.8 °F 80% 29.88 in 9.0 mi NW 11.5 mph - N/A   Overcast
6:05 AM 30.2 °F 21.9 °F 24.8 °F 80% 29.88 in 9.0 mi NW 9.2 mph - N/A   Overcast
6:51 AM 30.0 °F 20.5 °F 25.0 °F 82% 29.96 in 6.0 mi NW 11.5 mph - N/A   Haze
7:51 AM 30.9 °F 17.8 °F 26.1 °F 82% 29.97 in 9.0 mi NW 23.0 mph 28.8 mph 0.00 in Snow Light Snow
8:30 AM 32.0 °F 20.8 °F 24.8 °F 75% 29.91 in 9.0 mi NNW 17.3 mph - 0.00 in Snow Light Snow
8:51 AM 30.9 °F 18.1 °F 25.0 °F 79% 30.01 in 9.0 mi NW 21.9 mph 26.5 mph 0.00 in Snow Light Snow
9:51 AM 30.0 °F 18.3 °F 24.1 °F 79% 30.03 in 10.0 mi NW 17.3 mph - 0.00 in Snow Light Snow
10:07 AM 30.2 °F 17.4 °F 24.8 °F 80% 29.95 in 9.0 mi NW 20.7 mph 26.5 mph 0.00 in Snow Light Snow
10:25 AM 30.2 °F 17.1 °F 23.0 °F 75% 29.96 in 9.0 mi NNW 21.9 mph 26.5 mph 0.00 in Snow Light Snow
10:51 AM 30.0 °F 17.9 °F 23.0 °F 75% 30.04 in 10.0 mi NW 18.4 mph 25.3 mph 0.00 in   Overcast
12:28 PM 32.0 °F 21.2 °F 24.8 °F 75% 29.98 in 10.0 mi NW 16.1 mph 25.3 mph N/A   Scattered Clouds
12:51 PM 32.0 °F 20.8 °F 23.0 °F 69% 30.06 in 10.0 mi NW 17.3 mph 25.3 mph N/A   Partly Cloudy
1:51 PM 34.0 °F 23.0 °F 23.0 °F 64% 30.06 in 10.0 mi NW 18.4 mph 25.3 mph N/A   Clear
2:51 PM 35.1 °F 24.8 °F 21.9 °F 59% 30.09 in 10.0 mi NW 17.3 mph 27.6 mph N/A   Partly Cloudy
3:51 PM 34.0 °F 22.4 °F 21.9 °F 61% 30.11 in 10.0 mi NW 20.7 mph 27.6 mph N/A   Overcast
4:51 PM 32.0 °F 21.6 °F 23.0 °F 69% 30.12 in 10.0 mi NNW 15.0 mph - 0.00 in   Overcast
5:51 PM 28.9 °F 20.4 °F 21.0 °F 72% 30.16 in 10.0 mi NNW 9.2 mph - N/A   Partly Cloudy
6:51 PM 27.0 °F 16.7 °F 19.0 °F 72% 30.19 in 10.0 mi NW 11.5 mph - N/A   Clear
7:51 PM 25.0 °F 13.1 °F 18.0 °F 75% 30.21 in 10.0 mi NNW 13.8 mph - N/A   Clear
8:51 PM 24.1 °F 11.0 °F 17.1 °F 75% 30.25 in 10.0 mi NNW 16.1 mph 23.0 mph N/A   Partly Cloudy
9:51 PM 21.9 °F 11.7 °F 16.0 °F 78% 30.28 in 10.0 mi NNW 9.2 mph - N/A   Clear
11:51 PM 19.0 °F 11.1 °F 12.9 °F 77% 30.29 in 10.0 mi NW 5.8 mph - N/A   Clear